FW8128 Weather Reports


time (UTC)temp
C
wind
direction
speed
KPH
gust
KPH
rain 1hr
cm
rain 24hr
cm
rain mn
cm
humidity
%
barometer
mb
20260509053626 13 0 0.0 0.0 0.00 0.00 0.00 81 1014.1
20260509053125 13 0 0.0 0.0 0.00 0.00 0.00 80 1014.2
20260509052626 13 0 0.0 0.0 0.00 0.00 0.00 79 1014.2
20260509052357 13 0 0.0 0.0 0.00 0.00 0.00 79 1014.2
20260509051626 13 0 0.0 3.2 0.00 0.00 0.00 79 1014.2
20260509051126 13 0 0.0 6.4 0.00 0.00 0.00 78 1014.3
20260509050627 13 0 1.6 6.4 0.00 0.00 0.00 77 1014.3
20260509050358 13 0 0.0 4.8 0.00 0.00 0.00 79 1014.4
20260509045626 13 0 0.0 4.8 0.00 0.00 0.00 80 1014.6
20260509045123 13 0 0.0 3.2 0.00 0.00 0.00 81 1014.5
20260509044624 13 0 0.0 4.8 0.00 0.00 0.00 81 1014.5
20260509044123 13 0 0.0 4.8 0.00 0.00 0.00 81 1014.7
20260509043624 13 0 0.0 4.8 0.00 0.00 0.00 80 1014.7
20260509043124 13 0 0.0 4.8 0.00 0.00 0.00 80 1014.6
20260509042855 13 0 0.0 1.6 0.00 0.00 0.00 80 1014.6
20260509042356 13 0 0.0 1.6 0.00 0.00 0.00 81 1014.6
20260509041624 13 0 0.0 1.6 0.00 0.00 0.00 82 1014.6
20260509041354 13 0 0.0 4.8 0.00 0.00 0.00 81 1014.6
20260509040624 13 0 0.0 6.4 0.00 0.00 0.00 80 1014.5
20260509040124 13 0 1.6 6.4 0.00 0.00 0.00 80 1014.5
20260509035624 13 0 1.6 4.8 0.00 0.00 0.00 81 1014.4
20260509035125 13 0 0.0 6.4 0.00 0.00 0.00 80 1014.4
20260509034621 13 0 1.6 6.4 0.00 0.00 0.00 80 1014.5
20260509034119 12 331 1.6 6.4 0.00 0.00 0.00 82 1014.6
20260509033620 12 0 1.6 4.8 0.00 0.00 0.00 83 1014.6
20260509033124 12 348 0.0 6.4 0.00 0.00 0.00 86 1014.6
20260509033118 12 0 1.6 6.4 0.00 0.00 0.00 85 1014.6
20260509032349 12 0 0.0 3.2 0.00 0.00 0.00 86 1014.5
20260509031620 12 0 0.0 3.2 0.00 0.00 0.00 87 1014.5
20260509031119 12 0 0.0 3.2 0.00 0.00 0.00 87 1014.5
20260509030620 12 0 0.0 3.2 0.00 0.00 0.00 87 1014.5
20260509030120 12 0 0.0 0.0 0.00 0.00 0.00 86 1014.6
20260509025620 12 0 0.0 0.0 0.00 0.00 0.00 86 1014.7
20260509025350 12 0 0.0 0.0 0.00 0.00 0.00 86 1014.8
20260509024620 12 0 0.0 3.2 0.00 0.00 0.00 86 1014.9
20260509024117 12 0 0.0 3.2 0.00 0.00 0.00 86 1015.0
20260509023848 12 276 0.0 3.2 0.00 0.00 0.00 85 1014.9
20260509023116 12 0 0.0 0.0 0.00 0.00 0.00 85 1014.9
20260509022618 12 0 0.0 0.0 0.00 0.00 0.00 85 1014.8
20260509022117 12 0 0.0 0.0 0.00 0.00 0.00 85 1014.7
20260509021618 12 0 0.0 0.0 0.00 0.00 0.00 85 1014.8
20260509021117 12 0 0.0 0.0 0.00 0.00 0.00 85 1014.7
20260509020850 12 0 0.0 0.0 0.00 0.00 0.00 84 1014.8
20260509020117 13 0 0.0 0.0 0.00 0.00 0.00 83 1014.8
20260509015618 13 0 0.0 0.0 0.00 0.00 0.00 83 1014.7
20260509015117 13 0 0.0 0.0 0.00 0.00 0.00 82 1014.7
20260509014619 13 0 0.0 0.0 0.00 0.00 0.00 82 1014.7
20260509014117 13 0 0.0 0.0 0.00 0.00 0.00 82 1014.8
20260509013114 13 0 0.0 0.0 0.00 0.00 0.00 81 1014.5
20260509012615 13 0 0.0 0.0 0.00 0.00 0.00 81 1014.5
20260509012114 13 0 0.0 0.0 0.00 0.00 0.00 81 1014.5
20260509011616 13 0 0.0 0.0 0.00 0.00 0.00 80 1014.5
20260509011346 13 0 0.0 3.2 0.00 0.00 0.00 78 1014.4
20260509010616 13 0 0.0 3.2 0.00 0.00 0.00 77 1014.3
20260509010346 13 0 0.0 0.0 0.00 0.00 0.00 77 1014.3
20260509005613 13 0 0.0 0.0 0.00 0.00 0.00 76 1014.3
20260509005113 14 0 0.0 0.0 0.00 0.00 0.00 76 1014.2
20260509004614 14 0 0.0 0.0 0.00 0.00 0.00 76 1014.3
20260509004112 14 0 0.0 4.8 0.00 0.00 0.00 74 1014.3
20260509003614 14 0 0.0 4.8 0.00 0.00 0.00 74 1014.3
20260509003113 15 0 0.0 3.2 0.00 0.00 0.00 74 1014.3
20260509002842 15 0 0.0 0.0 0.00 0.00 0.00 72 1014.2
20260509002113 15 0 0.0 0.0 0.00 0.00 0.00 71 1014.1
20260509002108 15 0 0.0 0.0 0.00 0.00 0.00 72 1014.1
20260509001108 15 0 0.0 0.0 0.00 0.00 0.00 71 1014.0
20260509000838 16 0 0.0 0.0 0.00 0.00 0.00 72 1013.9
20260509000105 16 0 0.0 0.0 0.00 0.00 0.00 73 1013.9
20260508235605 16 0 0.0 0.0 0.00 0.00 0.00 72 1013.9
20260508235102 16 0 0.0 0.0 0.00 0.00 0.00 70 1013.8
20260508234602 16 0 0.0 0.0 0.00 0.00 0.00 68 1013.8
20260508234102 17 0 0.0 0.0 0.00 0.00 0.00 67 1013.8
20260508233602 17 0 0.0 0.0 0.00 0.00 0.00 67 1013.7
20260508233332 17 0 0.0 0.0 0.00 0.00 0.00 67 1013.6
20260508232602 18 0 0.0 0.0 0.00 0.00 0.00 65 1013.7
20260508232102 18 0 0.0 0.0 0.00 0.00 0.00 66 1013.8
20260508231602 18 0 0.0 0.0 0.00 0.00 0.00 64 1013.9
20260508231102 18 0 0.0 0.0 0.00 0.00 0.00 63 1013.9
20260508230602 18 0 0.0 0.0 0.00 0.00 0.00 57 1013.8
20260508230100 19 0 0.0 0.0 0.00 0.00 0.00 53 1013.8
20260508225600 19 0 0.0 0.0 0.00 0.00 0.00 57 1013.8
20260508225101 19 0 0.0 0.0 0.00 0.00 0.00 51 1013.9
20260508224601 19 0 0.0 0.0 0.00 0.00 0.00 52 1013.8
20260508224101 19 0 0.0 0.0 0.00 0.00 0.00 49 1013.8
20260508223831 20 0 0.0 0.0 0.00 0.00 0.00 49 1013.8
20260508223101 20 0 0.0 3.2 0.00 0.00 0.00 49 1013.7
20260508222831 20 0 0.0 3.2 0.00 0.15 0.00 48 1013.7
20260508222101 20 0 0.0 3.2 0.00 0.43 0.00 47 1013.7
20260508221600 20 0 0.0 4.8 0.00 0.46 0.00 47 1013.6
20260508221102 20 188 0.0 4.8 0.00 0.46 0.00 45 1013.5
20260508220601 20 330 0.0 4.8 0.00 0.46 0.00 47 1013.4
20260508220100 20 183 0.0 4.8 0.00 0.46 0.00 46 1013.4
20260508215601 20 0 0.0 0.0 0.00 0.46 0.00 45 1013.3
20260508215333 21 0 0.0 3.2 0.00 0.46 0.00 47 1013.4
20260508214602 21 0 0.0 3.2 0.00 0.46 0.00 43 1013.4
20260508214100 21 234 0.0 3.2 0.00 0.46 0.00 40 1013.5
20260508213559 21 0 0.0 3.2 0.00 0.46 0.00 42 1013.5
20260508213059 21 0 0.0 4.8 0.00 0.46 0.00 41 1013.5
20260508212559 21 0 0.0 4.8 0.00 0.46 0.00 41 1013.5
20260508212059 21 0 0.0 3.2 0.00 0.46 0.00 43 1013.5
20260508211559 21 0 1.6 6.4 0.00 0.46 0.00 43 1013.6
20260508211331 21 244 1.6 6.4 0.00 0.46 0.00 40 1013.5
20260508210559 21 0 1.6 6.4 0.00 0.46 0.00 39 1013.5
20260508210058 21 0 1.6 4.8 0.00 0.46 0.00 38 1013.6
20260508205829 21 0 1.6 4.8 0.00 0.46 0.00 38 1013.5
20260508205058 21 0 1.6 8.0 0.00 0.46 0.00 39 1013.5
20260508204830 21 0 3.2 8.0 0.00 0.46 0.00 39 1013.6
20260508204056 21 277 1.6 8.0 0.00 0.46 0.00 38 1013.7
20260508203826 22 0 1.6 6.4 0.00 0.46 0.00 38 1013.8
20260508203056 22 274 1.6 6.4 0.00 0.46 0.00 39 1013.8
20260508202827 22 0 1.6 6.4 0.00 0.46 0.00 38 1013.8
20260508202055 22 262 1.6 8.0 0.00 0.46 0.00 39 1013.7
20260508201555 22 0 1.6 8.0 0.00 0.46 0.00 37 1013.9
20260508201326 22 0 1.6 6.4 0.00 0.46 0.00 36 1014.0
20260508200602 22 0 1.6 9.7 0.00 0.46 0.00 36 1014.4
20260508200556 22 0 1.6 9.7 0.00 0.46 0.00 35 1014.1
20260508195556 22 332 0.0 6.4 0.00 0.46 0.00 36 1014.2
20260508195056 22 0 1.6 8.0 0.00 0.46 0.00 40 1014.3
20260508194554 22 224 1.6 8.0 0.00 0.46 0.00 37 1014.3
20260508194324 22 178 0.0 8.0 0.00 0.46 0.00 43 1014.4
20260508193554 21 0 1.6 6.4 0.00 0.46 0.00 41 1014.5
20260508193050 21 12 1.6 6.4 0.00 0.46 0.00 45 1014.6
20260508192551 21 0 1.6 8.0 0.00 0.46 0.00 40 1014.5
20260508192321 21 0 1.6 8.0 0.00 0.46 0.00 43 1014.5
20260508191821 21 242 1.6 9.7 0.00 0.46 0.00 46 1014.6
20260508191322 21 32 3.2 9.7 0.00 0.46 0.00 44 1014.7
20260508190820 21 276 1.6 9.7 0.00 0.46 0.00 39 1015.1
20260508190048 21 0 1.6 11.3 0.00 0.46 0.00 40 1015.0
20260508185548 21 224 1.6 11.3 0.00 0.46 0.00 41 1015.0
20260508185049 21 0 0.0 4.8 0.00 0.46 0.00 41 1014.9
20260508184548 21 313 3.2 9.7 0.00 0.46 0.00 40 1014.9
20260508184048 21 0 4.8 11.3 0.00 0.46 0.00 39 1015.0
20260508183546 21 345 3.2 11.3 0.00 0.46 0.00 41 1015.1
20260508183046 21 32 1.6 11.3 0.00 0.46 0.00 40 1015.2
20260508182546 21 0 1.6 11.3 0.00 0.46 0.00 42 1015.3
20260508182046 21 0 1.6 6.4 0.00 0.46 0.00 36 1015.3
20260508181817 21 0 1.6 8.0 0.00 0.46 0.00 41 1015.4
20260508181046 21 348 1.6 8.0 0.00 0.46 0.00 36 1015.5
20260508180545 21 345 1.6 11.3 0.00 0.46 0.00 43 1015.6
20260508180046 21 0 1.6 11.3 0.00 0.46 0.00 46 1015.7
20260508175546 20 276 1.6 6.4 0.00 0.46 0.00 41 1015.7
20260508175046 20 29 1.6 8.0 0.00 0.46 0.00 41 1015.8
20260508174546 20 178 1.6 8.0 0.00 0.46 0.00 37 1015.9
20260508174044 20 275 3.2 9.7 0.00 0.46 0.00 41 1015.9
20260508173541 20 249 3.2 9.7 0.00 0.46 0.00 44 1016.0
20260508173040 20 0 3.2 9.7 0.00 0.46 0.00 45 1016.1
20260508172538 20 234 1.6 6.4 0.00 0.46 0.00 46 1016.2
20260508172038 20 0 1.6 9.7 0.00 0.46 0.00 41 1016.2
20260508171808 19 0 3.2 11.3 0.00 0.46 0.00 46 1016.3
20260508171645 20 348 3.2 11.3 0.00 0.46 0.00 42 1016.4
20260508170538 20 320 1.6 8.0 0.00 0.46 0.00 41 1016.5
20260508170037 20 83 1.6 9.7 0.00 0.46 0.00 44 1016.5
20260508165808 20 0 1.6 9.7 0.00 0.46 0.00 51 1016.6
20260508165035 20 0 1.6 9.7 0.00 0.46 0.00 45 1016.6
20260508164532 20 2 3.2 9.7 0.00 0.48 0.00 42 1016.6
20260508164033 20 246 1.6 8.0 0.00 0.51 0.00 46 1016.7
20260508163803 19 129 1.6 11.3 0.00 0.51 0.00 49 1016.8
20260508163032 19 0 1.6 11.3 0.00 0.51 0.00 49 1016.9
20260508162533 18 0 1.6 6.4 0.00 0.51 0.00 48 1017.1
20260508162030 18 162 1.6 14.5 0.00 0.51 0.00 50 1017.1
20260508161530 18 282 3.2 14.5 0.00 0.51 0.00 47 1017.2
20260508161030 18 29 3.2 14.5 0.00 0.51 0.00 49 1017.3
20260508160529 18 227 3.2 8.0 0.00 0.51 0.00 46 1017.4
20260508160030 18 175 1.6 8.0 0.00 0.51 0.00 46 1017.5
20260508155530 18 0 1.6 8.0 0.00 0.51 0.00 51 1017.5
20260508155305 17 285 4.8 14.5 0.00 0.51 0.00 51 1017.5
20260508154530 17 297 3.2 14.5 0.00 0.51 0.00 49 1017.5
20260508154028 17 339 3.2 12.9 0.00 0.51 0.00 50 1017.5
20260508153525 17 359 4.8 12.9 0.00 0.51 0.00 48 1017.5
20260508153025 17 331 4.8 12.9 0.00 0.51 0.00 49 1017.6
20260508152525 17 38 3.2 12.9 0.00 0.51 0.00 48 1017.6
20260508152255 17 0 3.2 9.7 0.00 0.51 0.00 51 1017.8
20260508151522 17 49 3.2 11.3 0.00 0.53 0.00 52 1017.8
20260508151253 17 19 3.2 17.7 0.00 0.53 0.00 57 1018.0
20260508150527 17 26 4.8 14.5 0.00 0.56 0.00 50 1018.1
20260508150522 17 0 4.8 17.7 0.00 0.53 0.00 54 1018.1
20260508145522 17 25 3.2 12.9 0.00 0.56 0.00 55 1018.1
20260508145022 16 0 3.2 9.7 0.00 0.61 0.00 57 1018.2
20260508144752 16 91 3.2 11.3 0.00 0.61 0.00 52 1018.2
20260508144019 16 315 4.8 14.5 0.00 0.61 0.00 54 1018.2
20260508143520 16 20 6.4 14.5 0.00 0.61 0.00 52 1018.1
20260508143016 16 351 4.8 12.9 0.00 0.61 0.00 63 1018.1
20260508142516 16 302 3.2 12.9 0.00 0.61 0.00 59 1018.2
20260508142248 16 9 3.2 12.9 0.00 0.61 0.00 62 1018.1
20260508141517 16 351 1.6 6.4 0.00 0.61 0.00 64 1018.1
20260508141016 16 359 1.6 9.7 0.00 0.61 0.00 67 1018.2
20260508140514 15 217 3.2 9.7 0.00 0.61 0.00 70 1018.2
20260508140014 15 14 3.2 11.3 0.00 0.61 0.00 68 1018.2
20260508135514 15 37 3.2 11.3 0.00 0.61 0.00 68 1018.2
20260508135013 15 2 4.8 11.3 0.00 0.64 0.00 68 1018.3
20260508134746 14 310 6.4 14.5 0.00 0.64 0.00 68 1018.3
20260508134014 14 22 6.4 14.5 0.00 0.64 0.00 69 1018.1
20260508133514 14 15 3.2 12.9 0.00 0.64 0.00 72 1018.1
20260508133246 14 294 3.2 9.7 0.00 0.64 0.00 78 1018.1
20260508132743 14 1 1.6 9.7 0.00 0.66 0.00 83 1018.0
20260508132012 13 22 1.6 6.4 0.00 0.66 0.00 89 1018.0
20260508131743 13 32 3.2 9.7 0.00 0.66 0.00 93 1018.0
20260508131013 12 34 3.2 9.7 0.00 0.66 0.00 94 1018.0
20260508130512 12 352 1.6 8.0 0.00 0.66 0.00 97 1018.0
20260508130013 12 0 0.0 8.0 0.00 0.66 0.00 97 1017.8
20260508125743 12 0 0.0 3.2 0.00 0.71 0.00 97 1017.8
20260508125013 11 0 0.0 3.2 0.00 0.74 0.00 97 1017.8
20260508124512 11 0 0.0 3.2 0.00 0.76 0.00 97 1017.8
20260508124244 11 0 0.0 3.2 0.00 0.79 0.00 96 1017.8
20260508123511 10 286 0.0 3.2 0.00 0.84 0.00 96 1017.7
20260508123012 10 0 0.0 0.0 0.00 0.89 0.00 96 1017.7
20260508122511 10 0 0.0 1.6 0.00 0.89 0.00 96 1017.7
20260508122012 9 0 0.0 3.2 0.00 0.91 0.00 96 1017.7
20260508121458 9 0 0.0 3.2 0.00 0.91 0.00 96 1017.7
20260508120958 8 0 0.0 0.0 0.00 0.91 0.00 96 1017.7
20260508120442 8 0 0.0 0.0 0.00 0.91 0.00 96 1017.6
20260508115944 8 0 0.0 0.0 0.00 0.94 0.00 96 1017.5
20260508115443 8 0 0.0 1.6 0.00 0.97 0.00 95 1017.5
20260508114944 7 0 0.0 1.6 0.00 0.97 0.00 95 1017.4
20260508114443 7 192 1.6 3.2 0.00 0.97 0.00 95 1017.2
20260508113944 7 0 1.6 3.2 0.00 0.97 0.00 95 1017.2
20260508113443 7 193 0.0 3.2 0.00 0.97 0.00 95 1017.2
20260508112944 7 0 0.0 0.0 0.00 0.99 0.00 95 1017.1
20260508112443 7 0 0.0 0.0 0.00 0.99 0.00 95 1017.2
20260508112215 7 0 0.0 0.0 0.00 0.99 0.00 95 1017.1
20260508111444 7 0 0.0 3.2 0.00 0.99 0.00 95 1017.1
20260508110930 7 0 1.6 3.2 0.00 0.99 0.00 95 1016.9
20260508110414 7 108 1.6 3.2 0.00 0.99 0.00 95 1016.8
20260508105915 6 185 1.6 3.2 0.00 0.99 0.00 95 1016.7
20260508105414 6 63 1.6 3.2 0.00 0.99 0.00 95 1016.6
20260508104915 6 200 1.6 3.2 0.00 0.99 0.00 95 1016.3
20260508104414 6 0 0.0 3.2 0.00 0.99 0.00 95 1016.3
20260508104145 7 0 0.0 3.2 0.00 0.99 0.00 95 1016.3
20260508103414 7 91 0.0 3.2 0.00 0.99 0.00 95 1016.2
20260508102914 7 114 0.0 3.2 0.00 0.99 0.00 95 1016.1
20260508102413 7 220 0.0 3.2 0.00 0.99 0.00 95 1016.0
20260508102145 7 0 0.0 0.0 0.00 0.99 0.00 95 1016.1
20260508101413 7 0 0.0 0.0 0.00 0.99 0.00 95 1016.0
20260508100914 7 0 0.0 0.0 0.00 0.99 0.00 95 1016.0
20260508100643 7 0 0.0 0.0 0.00 0.99 0.00 95 1015.9
20260508095914 7 0 0.0 0.0 0.00 0.99 0.00 95 1015.8
20260508095400 7 0 0.0 0.0 0.00 0.99 0.00 95 1015.7
20260508094859 7 0 0.0 0.0 0.00 0.99 0.00 95 1015.7
20260508094400 7 0 0.0 0.0 0.00 0.99 0.00 95 1015.7
20260508093859 7 0 0.0 0.0 0.00 0.99 0.00 95 1015.6
20260508093632 8 0 0.0 0.0 0.00 0.99 0.00 95 1015.6
20260508092900 8 0 0.0 0.0 0.00 0.99 0.00 95 1015.5
20260508092636 8 0 0.0 0.0 0.00 0.99 0.00 95 1015.5
20260508092400 8 0 0.0 0.0 0.00 0.99 0.00 95 1015.5
20260508091401 8 0 0.0 0.0 0.00 0.99 0.00 95 1015.4
20260508090901 8 0 0.0 3.2 0.00 1.04 0.00 95 1015.3
20260508090401 8 0 0.0 3.2 0.00 1.09 0.00 95 1015.4
20260508090131 8 0 0.0 0.0 0.00 1.09 0.00 95 1015.5
20260508085849 8 0 0.0 0.0 0.00 1.09 0.00 95 1015.4
20260508084832 8 0 0.0 0.0 0.00 1.09 0.00 95 1015.3
20260508084332 8 0 0.0 0.0 0.00 1.09 0.00 95 1015.3
20260508083832 8 0 0.0 4.8 0.00 1.09 0.00 95 1015.3
20260508083602 8 0 0.0 4.8 0.00 1.09 0.00 95 1015.3
20260508082832 8 0 0.0 0.0 0.00 1.09 0.00 95 1015.2
20260508082332 8 0 0.0 0.0 0.00 1.09 0.00 95 1015.2
20260508081833 8 0 0.0 0.0 0.00 1.09 0.00 95 1015.2
20260508081333 8 0 0.0 0.0 0.00 1.09 0.00 95 1015.1
20260508080832 8 0 0.0 0.0 0.00 1.09 0.00 95 1014.9
20260508080603 8 0 0.0 0.0 0.00 1.09 0.00 95 1015.0
20260508075832 9 0 0.0 0.0 0.00 1.09 0.00 95 1015.0
20260508075331 9 0 0.0 0.0 0.00 1.09 0.00 95 1014.9
20260508075102 9 0 0.0 4.8 0.00 1.14 0.00 95 1014.9
20260508074316 9 1 0.0 4.8 0.00 1.17 0.00 95 1014.9
20260508073816 9 0 0.0 0.0 0.00 1.19 0.00 95 1014.8
20260508073316 9 0 0.0 0.0 0.00 1.19 0.00 95 1014.8
20260508072817 9 0 0.0 0.0 0.00 1.22 0.00 95 1014.8
20260508072317 9 0 0.0 0.0 0.00 1.22 0.00 95 1014.8
20260508071817 9 0 0.0 0.0 0.00 1.22 0.00 95 1014.7
20260508071316 9 0 0.0 0.0 0.00 1.24 0.00 95 1014.7
20260508070816 9 0 0.0 0.0 0.00 1.24 0.00 95 1014.6
20260508070548 10 0 0.0 0.0 0.00 1.24 0.00 95 1014.6
20260508065815 10 0 0.0 0.0 0.00 1.27 0.00 95 1014.5
20260508065316 10 0 0.0 0.0 0.00 1.27 0.00 95 1014.6
20260508064816 10 0 0.0 0.0 0.00 1.30 0.00 95 1014.5
20260508064302 10 0 0.0 0.0 0.00 1.30 0.00 95 1014.5
20260508064034 10 0 0.0 0.0 0.00 1.32 0.00 95 1014.5
20260508063302 10 0 0.0 0.0 0.00 1.35 0.00 95 1014.5
20260508062802 10 0 0.0 0.0 0.00 1.40 0.00 95 1014.5
20260508062306 10 0 0.0 0.0 0.00 1.42 0.00 95 1014.6
20260508061803 10 0 0.0 0.0 0.00 1.42 0.00 95 1014.7
20260508061534 10 0 0.0 0.0 0.00 1.45 0.00 95 1014.6
20260508060803 10 0 0.0 0.0 0.00 1.45 0.00 95 1014.6
20260508060303 10 0 0.0 0.0 0.00 1.50 0.00 95 1014.6
20260508055804 10 0 0.0 0.0 0.00 1.52 0.00 95 1014.6
20260508055306 10 0 0.0 0.0 0.00 1.55 0.00 95 1014.5
20260508054803 10 0 0.0 0.0 0.00 1.55 0.00 95 1014.5
20260508054304 10 0 0.0 0.0 0.00 1.57 0.00 95 1014.4
20260508053749 10 0 0.0 0.0 0.00 1.65 0.00 95 1014.4